EW4719 Weather Reports


Display with metric or nautical units.
time (UTC)temp
F
wind
direction
speed
MPH
gust
MPH
rain 1hr
in
rain 24hr
in
rain mn
in
humidity
%
barometer
mb
20260510111600 52 296 3.0 9.0 0.00 0.00 0.00 52 1020.8
20260510110114 50 326 2.0 13.0 0.00 0.00 0.00 53 1021.0
20260510110051 51 0.0 0.0 0.00 0.00 0.00 52 1020.4
20260510104602 52 244 4.0 14.0 0.00 0.00 0.00 55 1021.3
20260510104559 52 0.0 0.0 0.00 0.00 0.00 53 1020.6
20260510103122 49 275 4.0 11.0 0.00 0.00 0.00 56 1021.5
20260510103051 50 0.0 0.0 0.00 0.00 0.00 56 1020.8
20260510101555 51 0.0 0.0 0.00 0.00 0.00 57 1021.0
20260510101509 51 309 4.0 10.0 0.00 0.00 0.00 57 1021.6
20260510100053 51 0.0 0.0 0.00 0.00 0.00 60 1021.1
20260510100003 51 296 5.0 11.0 0.00 0.00 0.00 60 1021.8
20260510094600 51 0.0 0.0 0.00 0.00 0.00 63 1021.3
20260510094534 50 271 5.0 14.0 0.00 0.00 0.00 63 1022.0
20260510093110 50 291 3.0 10.0 0.00 0.00 0.00 68 1022.2
20260510093053 50 0.0 0.0 0.00 0.00 0.00 68 1021.5
20260510091557 48 272 4.0 10.0 0.00 0.00 0.00 70 1022.4
20260510091550 48 0.0 0.0 0.00 0.00 0.00 70 1021.7
20260510090108 49 262 4.0 8.0 0.00 0.00 0.00 71 1022.6
20260510090048 49 0.0 0.0 0.00 0.00 0.00 70 1022.0
20260510084558 48 0.0 0.0 0.00 0.00 0.00 71 1022.2
20260510084553 47 211 5.0 15.0 0.00 0.01 0.00 72 1022.8
20260510083108 47 315 4.0 10.0 0.00 0.01 0.00 70 1023.0
20260510083103 47 0.0 0.0 0.00 0.00 0.00 69 1022.3
20260510081621 45 249 3.0 9.0 0.00 0.01 0.00 70 1023.2
20260510081611 46 0.0 0.0 0.00 0.00 0.00 70 1022.5
20260510080046 44 0.0 0.0 0.00 0.00 0.00 77 1022.8
20260510074600 43 0.0 0.0 0.00 0.00 0.00 82 1022.9
20260510074548 43 246 3.0 9.0 0.00 0.09 0.00 82 1023.6
20260510073107 42 336 1.0 6.0 0.00 0.09 0.00 87 1023.6
20260510073051 42 0.0 0.0 0.00 0.00 0.00 86 1022.9
20260510071546 41 325 2.0 5.0 0.00 0.09 0.00 87 1023.7
20260510070106 41 319 1.0 4.0 0.00 0.09 0.00 89 1023.8
20260510070051 41 0.0 0.0 0.00 0.00 0.00 88 1023.1
20260510064559 40 323 3.0 5.0 0.00 0.20 0.00 90 1024.0
20260510064548 41 0.0 0.0 0.00 0.00 0.00 90 1023.2
20260510063114 40 292 1.0 4.0 0.00 0.20 0.00 92 1024.0
20260510063047 40 0.0 0.0 0.00 0.00 0.00 92 1023.3
20260510061603 39 320 1.0 3.0 0.00 0.20 0.00 92 1024.1
20260510061556 39 0.0 0.0 0.00 0.00 0.00 92 1023.4
20260510060144 38 0.0 0.0 0.00 0.00 0.00 93 1023.3
20260510060115 38 328 1.0 3.0 0.00 0.20 0.00 93 1024.0
20260510054610 36 33 0.0 1.0 0.00 0.20 0.00 92 1024.1
20260510054548 36 0.0 0.0 0.00 0.00 0.00 92 1023.4
20260510053057 36 0.0 0.0 0.00 0.00 0.00 91 1023.5
20260510053005 35 33 0.0 0.0 0.00 0.20 0.00 92 1024.3
20260510051547 35 0.0 0.0 0.00 0.00 0.00 91 1023.6
20260510051545 34 350 0.0 0.0 0.00 0.20 0.00 91 1024.3
20260510050113 35 350 0.0 0.0 0.00 0.20 0.00 91 1024.5
20260510050048 35 0.0 0.0 0.00 0.00 0.00 91 1023.6
20260510044607 34 350 0.0 0.0 0.00 0.20 0.00 91 1024.5
20260510044551 34 0.0 0.0 0.00 0.00 0.00 91 1023.7
20260510043126 34 350 0.0 0.0 0.00 0.20 0.00 91 1024.4
20260510043045 34 0.0 0.0 0.00 0.00 0.00 90 1023.7
20260510041548 34 0.0 0.0 0.00 0.00 0.00 90 1023.8
20260510041527 34 350 0.0 0.0 0.00 0.20 0.00 90 1024.5
20260510040059 35 350 0.0 0.0 0.00 0.20 0.00 90 1024.5
20260510034557 36 350 0.0 0.0 0.00 0.20 0.00 91 1024.5
20260510034555 36 0.0 0.0 0.00 0.00 0.00 91 1023.9
20260510033114 36 350 0.0 0.0 0.00 0.20 0.00 91 1024.6
20260510033044 36 0.0 0.0 0.00 0.00 0.00 90 1023.9
20260510031600 37 0.0 0.0 0.00 0.00 0.00 90 1024.1
20260510031508 36 350 0.0 0.0 0.00 0.20 0.00 91 1024.8
20260510030047 36 0.0 0.0 0.00 0.00 0.00 91 1024.2
20260510030009 36 350 0.0 0.0 0.00 0.20 0.00 92 1024.9
20260510024658 35 0.0 0.0 0.00 0.00 0.00 90 1024.0
20260510023107 35 350 0.0 0.0 0.00 0.20 0.00 91 1024.8
20260510023056 35 0.0 0.0 0.00 0.00 0.00 90 1024.1
20260510021606 34 350 0.0 0.0 0.00 0.20 0.00 90 1024.8
20260510021547 35 0.0 0.0 0.00 0.00 0.00 90 1024.0
20260510020128 35 350 0.0 2.0 0.00 0.20 0.00 90 1024.8
20260510020051 35 0.0 0.0 0.00 0.00 0.00 89 1024.1
20260510014549 36 0.0 0.0 0.00 0.00 0.00 89 1024.1
20260510014538 35 350 0.0 2.0 0.00 0.20 0.00 90 1024.9
20260510013101 36 0.0 0.0 0.00 0.00 0.00 90 1024.2
20260510011551 34 79 0.0 0.0 0.00 0.20 0.00 88 1024.9
20260510011544 34 0.0 0.0 0.00 0.00 0.00 88 1024.2
20260510010119 34 79 0.0 0.0 0.00 0.20 0.00 88 1024.9
20260510010044 35 0.0 0.0 0.00 0.00 0.00 88 1024.3
20260510004608 35 79 0.0 0.0 0.00 0.20 0.00 88 1025.0
20260510004543 35 0.0 0.0 0.00 0.00 0.00 88 1024.4
20260510003123 35 79 0.0 0.0 0.00 0.20 0.00 88 1025.2
20260510003054 35 0.0 0.0 0.00 0.00 0.00 87 1024.6
20260510001545 35 0.0 0.0 0.00 0.00 0.00 87 1024.7
20260510001509 35 79 0.0 0.0 0.00 0.20 0.00 88 1025.3
20260510000046 35 0.0 0.0 0.00 0.00 0.00 86 1024.8
20260510000012 35 79 0.0 0.0 0.00 0.20 0.00 87 1025.3
20260509234550 35 79 0.0 0.0 0.00 0.20 0.00 86 1025.5
20260509234545 36 0.0 0.0 0.00 0.00 0.00 86 1024.9
20260509233103 36 79 0.0 0.0 0.00 0.20 0.00 86 1025.6
20260509233055 36 0.0 0.0 0.00 0.00 0.00 85 1025.0
20260509231558 37 0.0 0.0 0.00 0.00 0.00 85 1025.1
20260509231544 36 79 0.0 0.0 0.00 0.20 0.00 85 1025.6
20260509230107 37 79 0.0 0.0 0.00 0.20 0.00 85 1025.6
20260509230049 38 0.0 0.0 0.00 0.00 0.00 85 1025.2
20260509224546 38 0.0 0.0 0.00 0.00 0.00 84 1025.2
20260509224540 38 79 0.0 0.0 0.00 0.20 0.20 84 1025.7
20260509223100 39 79 0.0 2.0 0.00 0.20 0.20 84 1025.7
20260509223045 39 0.0 0.0 0.00 0.00 0.00 84 1025.1
20260509221551 40 0.0 0.0 0.00 0.00 0.00 83 1025.2
20260509221543 40 79 0.0 1.0 0.00 0.20 0.20 83 1025.6
20260509220103 41 79 0.0 2.0 0.00 0.20 0.20 83 1025.5
20260509220055 41 0.0 0.0 0.00 0.00 0.00 83 1025.1
20260509214544 42 0.0 0.0 0.00 0.00 0.00 82 1025.2
20260509214536 42 79 1.0 3.0 0.00 0.20 0.20 82 1025.5
20260509213110 42 67 0.0 3.0 0.00 0.20 0.20 81 1025.6
20260509213047 42 0.0 0.0 0.00 0.00 0.00 80 1025.1
20260509211606 42 74 0.0 3.0 0.00 0.20 0.20 79 1025.5
20260509211548 42 0.0 0.0 0.00 0.00 0.00 79 1025.1
20260509210130 43 74 0.0 4.0 0.00 0.20 0.20 78 1025.5
20260509210054 43 0.0 0.0 0.00 0.00 0.00 78 1025.1
20260509204551 43 0.0 0.0 0.00 0.00 0.00 77 1025.0
20260509204536 43 61 2.0 6.0 0.00 0.20 0.20 78 1025.4
20260509203116 43 67 1.0 4.0 0.00 0.20 0.20 77 1025.5
20260509203043 43 0.0 0.0 0.00 0.00 0.00 76 1025.0
20260509201609 43 74 2.0 6.0 0.00 0.20 0.20 76 1025.3
20260509201546 44 0.0 0.0 0.00 0.00 0.00 76 1025.0
20260509200133 44 67 1.0 6.0 0.00 0.20 0.20 75 1025.2
20260509200105 44 0.0 0.0 0.00 0.00 0.00 74 1024.7
20260509194547 45 0.0 0.0 0.00 0.00 0.00 73 1024.6
20260509194540 44 70 2.0 5.0 0.00 0.20 0.20 74 1025.1
20260509193117 45 43 3.0 9.0 0.00 0.20 0.20 73 1025.0
20260509193053 45 0.0 0.0 0.00 0.00 0.00 72 1024.6
20260509191608 45 94 4.0 9.0 0.00 0.20 0.20 71 1025.0
20260509191550 45 0.0 0.0 0.00 0.00 0.00 71 1024.6
20260509190056 46 0.0 0.0 0.00 0.00 0.00 70 1024.5
20260509190015 45 55 2.0 10.0 0.00 0.20 0.20 70 1024.8
20260509184622 46 0.0 0.0 0.00 0.00 0.00 69 1024.4
20260509184600 46 26 4.0 10.0 0.00 0.20 0.20 69 1024.7
20260509183116 46 49 2.0 8.0 0.00 0.20 0.20 69 1024.5
20260509183055 46 0.0 0.0 0.00 0.00 0.00 69 1024.2
20260509181605 46 47 3.0 10.0 0.00 0.20 0.20 69 1024.5
20260509181550 46 0.0 0.0 0.00 0.00 0.00 69 1024.1
20260509180122 46 63 3.0 13.0 0.00 0.20 0.20 69 1024.4
20260509180048 47 0.0 0.0 0.00 0.00 0.00 69 1024.0
20260509174556 48 0.0 0.0 0.00 0.00 0.00 68 1023.9
20260509174517 48 57 3.0 12.0 0.00 0.20 0.20 68 1024.2
20260509173054 47 0.0 0.0 0.00 0.00 0.00 68 1023.9
20260509173005 47 36 4.0 10.0 0.00 0.20 0.20 68 1024.2
20260509171615 47 292 1.0 8.0 0.00 0.20 0.20 69 1024.1
20260509171547 48 0.0 0.0 0.00 0.00 0.00 68 1024.0
20260509170117 48 67 5.0 11.0 0.00 0.20 0.20 67 1024.1
20260509170059 48 0.0 0.0 0.00 0.00 0.00 66 1023.9
20260509164553 47 0.0 0.0 0.00 0.00 0.00 66 1023.9
20260509164514 47 82 2.0 12.0 0.00 0.20 0.20 67 1024.0
20260509163109 48 0.0 0.0 0.00 0.00 0.00 69 1023.9
20260509163012 48 88 2.0 10.0 0.00 0.20 0.20 69 1024.0
20260509161552 48 81 3.0 10.0 0.00 0.20 0.20 68 1023.9
20260509160127 49 335 4.0 10.0 0.00 0.20 0.20 68 1023.8
20260509154603 48 49 4.0 9.0 0.00 0.20 0.20 70 1023.9
20260509153121 49 70 3.0 13.0 0.00 0.20 0.20 69 1023.6
20260509151502 50 126 2.0 10.0 0.00 0.20 0.20 69 1023.7
20260509150007 49 63 3.0 9.0 0.00 0.20 0.20 69 1023.8
20260509144610 49 105 3.0 10.0 0.00 0.20 0.20 68 1023.9
20260509143106 49 58 2.0 7.0 0.00 0.20 0.20 67 1023.9
20260509141603 50 90 2.0 10.0 0.00 0.20 0.20 70 1023.8
20260509140129 50 54 6.0 11.0 0.00 0.20 0.20 70 1023.9
20260509134502 49 72 5.0 13.0 0.00 0.20 0.20 70 1023.8
20260509133001 48 332 3.0 9.0 0.00 0.20 0.20 74 1024.0
20260509131522 48 29 2.0 13.0 0.00 0.20 0.20 75 1024.0
20260509124600 46 322 1.0 8.0 0.00 0.20 0.20 80 1024.3
20260509123107 45 55 2.0 7.0 0.00 0.20 0.20 81 1024.3
20260509121559 46 51 4.0 11.0 0.00 0.20 0.20 81 1024.2
20260509120115 45 85 4.0 11.0 0.00 0.20 0.20 83 1024.3
20260509114607 45 84 5.0 11.0 0.00 0.20 0.20 84 1024.3
20260509113119 44 61 3.0 8.0 0.00 0.20 0.20 87 1024.3